Location: State Camp
(41.2367°N, 77.7828°W)
Time: 16:29:19
(UTC-04:00)

Daily predictions for brighter satellites

Satellite Brightness Start Highest point End
(mag) Time Altitude Azimuth Time Altitude Azimuth Time Altitude Azimuth
Cosmos 1655 Rocket 4.1 20:27:39 10° N 20:34:00 63° E 20:40:15 10° SSE
Cosmos 2242 Rocket 3.6 20:29:50 10° S 20:34:19 85° E 20:38:48 10° N
Cosmos 1862 3.4 20:31:42 10° N 20:35:43 58° E 20:39:42 10° SSE
USA 229 DEB 3.9 20:29:47 10° S 20:36:13 47° ESE 20:42:47 10° NE
USA 229 4.0 20:29:54 10° S 20:36:20 46° ESE 20:42:53 10° NE
Cosmos 2279 Rocket 4.0 20:32:39 10° S 20:38:48 65° E 20:44:57 10° NNE
Cosmos 1408 2.8 20:35:47 10° N 20:39:28 77° W 20:43:04 10° S
Cosmos 2322 Rocket 3.0 20:35:24 10° SW 20:40:54 58° WNW 20:46:29 10° NNE
Cosmos 1825 2.5 20:40:09 10° NNW 20:43:57 71° W 20:47:43 10° S
FALCON 9 R/B 2.0 20:43:41 10° WSW 20:45:54 20° S 20:47:35 10° SE
Cosmos 2360 Rocket 2.2 20:41:38 10° S 20:47:12 63° ESE 20:52:49 10° NNE
Cosmos 1428 Rocket 4.5 20:43:17 10° N 20:49:24 70° E 20:55:30 10° SSE
ATLAS 5 CENTAUR R/B 2.5 20:46:52 10° NW 20:52:55 89° SW 20:59:29 10° SSE
H-2A R/B 4.1 20:50:31 10° S 20:54:11 41° W 20:57:49 10° NNW
COSMOS 2428 3.3 20:51:38 10° SSE 20:56:39 33° ESE 21:01:43 10° NE
Cosmos 1908 Rocket 3.9 20:53:11 10° N 20:57:20 44° ENE 21:01:29 10° SSE
Resurs 01 Rocket 2.6 20:55:28 10° S 20:59:46 50° W 21:04:07 10° NNW
USA 267 3.5 20:54:21 10° NE 21:00:55 80° NW 21:07:28 10° SW
SJ-11-01 4.5 20:57:39 10° SSE 21:02:10 53° ENE 21:06:43 10° N
BREEZE-M DEB (TANK) 4.2 20:59:10 10° WNW 21:02:20 50° N 21:10:48 10° E
Helios 1A 3.0 20:59:31 10° SSE 21:03:44 77° ENE 21:08:00 10° N
Cosmos 1939 Rocket 3.1 21:00:54 10° SSE 21:04:47 50° ENE 21:08:39 10° N
Atlas Centaur 2 3.4 21:02:12 10° WSW 21:07:39 33° S 21:12:51 15° SE
CZ-4B DEB 2.7 21:06:08 13° SSE 21:08:46 60° ENE 21:11:46 10° N
Cosmos 2322 3.7 21:04:07 10° SSW 21:09:49 83° ESE 21:15:33 10° NNE
Cosmos 1733 Rocket 3.9 21:07:44 10° NNW 21:12:04 52° W 21:16:22 10° S
Abrixas rocket 4.1 21:09:27 10° NW 21:12:14 24° N 21:15:00 10° ENE
Cosmos 1782 Rocket 4.2 21:08:08 10° N 21:12:14 37° ENE 21:15:11 17° SE
Okean 1-7 3.8 21:08:36 11° SSE 21:12:17 33° E 21:16:14 10° NNE
Sich 1 Rocket 3.6 21:08:40 10° N 21:13:09 67° E 21:17:38 10° SSE
SL-16 R/B 4.1 21:08:12 10° WSW 21:13:18 34° WNW 21:18:26 10° N
Cosmos 1606 4.5 21:13:17 15° E 21:13:34 15° E 21:15:42 10° NE
YAOGAN 6 3.4 21:11:36 18° SE 21:13:47 34° ENE 21:17:04 10° N
Cosmos 968 Rocket 3.7 21:20:17 10° NNW 21:25:29 71° WSW 21:30:31 11° S
Cosmos 1844 Rocket 3.1 21:20:57 10° NNW 21:26:21 48° ENE 21:29:48 21° SE
CZ-4C R/B 3.9 21:20:13 10° NNW 21:26:28 33° NE 21:31:55 15° E
Meteor 2-10 Rocket 3.9 21:20:40 10° SSW 21:26:29 81° W 21:32:16 10° N
Cosmos 2237 Rocket 3.4 21:26:55 19° ESE 21:27:42 20° E 21:31:40 10° NE
Meteor 1-14 Rocket 4.2 21:22:39 10° N 21:28:22 74° E 21:33:26 14° SSE
Cosmos 2333 4.2 21:26:36 10° S 21:32:11 59° ESE 21:37:53 10° NNE
Cosmos 2278 Rocket 3.6 21:28:09 10° N 21:32:46 25° NE 21:35:33 17° E
Okean 2 Rocket 3.5 21:28:47 10° N 21:33:09 45° ENE 21:35:19 26° SE
USA 234 3.5 21:30:18 18° ESE 21:35:10 61° NE 21:41:36 10° NW
Cosmos 2333 Rocket 2.9 21:32:00 17° SSE 21:35:37 32° ESE 21:40:41 10° NE
Helios 1B rocket 3.4 21:33:49 10° N 21:37:47 49° WNW 21:41:44 10° SSW
Cosmos 1703 Rocket 3.8 21:40:38 10° SSW 21:45:03 70° W 21:49:28 10° N
Envisat 3.9 21:43:35 10° S 21:48:27 47° W 21:53:22 10° NNW
Cosmos 1633 4.0 21:45:28 10° NNE 21:48:20 23° ENE 21:48:20 23° ENE
Cosmos 2219 Rocket 2.3 21:43:33 10° S 21:48:57 52° ESE 21:54:23 10° NNE
SPOT 5 3.0 21:57:52 37° SE 21:59:21 53° ENE 22:03:47 10° N
SeaSat 1 3.5 21:58:47 26° E 22:00:25 32° NE 22:04:47 10° N
NOSS 0 Rocket 4.1 22:00:21 21° S 22:04:11 50° ESE 22:10:06 10° NE
ERS-1 Rocket 3.1 22:01:58 25° S 22:04:54 71° WSW 22:09:56 10° NNW
H-2A R/B 2.6 22:06:42 34° E 22:07:43 38° ENE 22:12:15 10° N
Cosmos 2151 Rocket 3.8 22:03:39 10° N 22:08:01 52° E 22:08:40 47° ESE
Milstar 3 4.4 22:05:21 10° WSW 22:09:53 17° SSW 22:11:48 15° S
Cosmos 1674 Rocket 4.4 22:15:43 34° ENE 22:15:43 34° ENE 22:19:03 10° NNE
Cosmos 1570 Rocket 3.9 22:11:35 21° SSW 22:15:10 80° ESE 22:20:29 10° NNE
Okean 1 Rocket 4.5 22:13:29 10° NNE 22:16:49 25° ENE 22:16:49 25° ENE
NOSS 3-1 (C) 3.4 22:13:18 10° SW 22:19:02 84° WNW 22:25:31 10° NE
MetOp-B 4.2 22:17:11 35° S 22:19:30 78° WSW 22:24:53 10° NNW
Cosmos 1782 3.1 22:18:24 37° SSW 22:19:49 66° W 22:23:50 10° N
Cosmos 1602 4.3 22:17:43 10° N 22:20:56 43° NE 22:20:56 43° NE
ASTEX 1 4.0 22:21:11 38° E 22:21:30 39° ENE 22:26:05 10° N
YAOGAN 11 4.2 22:20:58 49° S 22:22:03 72° WSW 22:26:22 10° NNW
Iridium 4 Rocket 4.2 22:21:33 10° NNE 22:24:24 28° ENE 22:24:24 28° ENE
H-2A R/B 3.1 22:27:25 33° ENE 22:27:25 33° ENE 22:31:08 10° N
Cosmos 2208 Rocket 4.0 22:25:08 24° SSW 22:28:28 86° WNW 22:33:48 10° NNE
Cosmos 1346 Rocket 3.0 22:31:35 59° NE 22:31:35 59° NE 22:34:57 10° NNE
Terra 2.6 22:32:32 36° ENE 22:32:32 36° ENE 22:36:51 10° N
Meteor 1-27 Rocket 3.6 22:33:10 52° SSE 22:34:29 72° E 22:40:02 10° NNE
NOSS 3-1 (A) 3.3 22:31:06 10° SW 22:36:52 85° NW 22:43:22 10° NE
ATLAS 2AS CENTAUR R/B 3.9 22:39:31 28° E 22:39:31 28° E 22:44:48 10° NE
COSMOS 2428 4.2 22:35:39 10° SW 22:40:50 36° WNW 22:46:05 10° N
ARGOS 3.4 22:41:15 43° SSW 22:42:50 62° WSW 22:48:10 10° NNW
Cosmos 1898 Rocket 3.5 22:39:08 10° NNW 22:44:16 60° ENE 22:44:33 59° E
Cosmos 1980 3.6 22:42:14 36° SSW 22:44:40 87° WNW 22:50:22 10° NNE
SL-08 R/B 4.3 22:39:50 10° N 22:45:59 85° E 22:47:23 56° SSE
Cosmos 1300 Rocket 3.7 22:43:46 10° N 22:47:37 64° NNE 22:47:37 64° NNE
Cosmos 1553 Rocket 3.9 22:46:05 46° S 22:48:09 90° NE 22:54:23 10° N
Cosmos 1844 4.3 22:42:58 10° NW 22:48:23 48° WSW 22:49:48 39° SSW
Cosmos 1606 4.1 22:48:19 30° WSW 22:49:02 33° WNW 22:52:30 10° NNW
Abrixas rocket 4.1 22:46:08 10° WNW 22:47:58 30° NW 22:47:58 30° NW
SL-16 R/B 3.1 22:53:21 35° ENE 22:53:21 35° ENE 22:57:12 10° NE
Cosmos 2084 4.4 22:51:51 10° NW 22:54:45 39° W 22:54:45 39° W
SPOT 1/Viking Rocket 3.8 22:55:00 55° SW 22:55:48 63° WSW 23:00:59 10° NNW
Atlas Centaur 2 3.9 22:50:45 10° WSW 22:55:28 26° SSW 22:55:28 26° SSW
ATLAS 3B R/B 4.0 22:54:47 10° NNW 23:00:37 28° NE 23:03:13 22° ENE
Meteor 1-11 Rocket 3.8 22:57:46 10° NNW 23:03:17 68° W 23:04:02 60° SW
Cosmos 1814 Rocket 4.4 23:06:52 50° NE 23:06:52 50° NE 23:10:50 10° NNE
ATLAS CENTAUR R/B 3.5 23:12:45 20° NE 23:12:45 20° NE 23:14:01 10° NE
Cosmos 1844 Rocket 4.3 23:05:34 10° NW 23:09:53 23° WSW 23:11:29 21° SW
Cosmos 2237 Rocket 2.7 23:08:37 31° SW 23:11:15 58° WNW 23:16:53 10° NNE
Cosmos 1378 Rocket 4.4 23:13:23 46° N 23:13:23 46° N 23:16:32 10° N
Meteor 2-11 Rocket 4.5 23:12:02 58° SW 23:13:12 75° W 23:19:19 10° N
Cosmos 468 Rocket 4.0 23:13:09 76° W 23:13:16 77° WNW 23:18:37 10° NNE
Cosmos 883 Rocket 4.3 23:14:58 73° E 23:15:01 73° E 23:21:07 10° NNE
CZ-4C R/B 3.0 23:08:22 10° NW 23:15:34 68° WSW 23:17:07 56° S
Cosmos 1386 Rocket 4.4 23:10:05 10° N 23:16:30 87° W 23:17:08 74° S
Cosmos 2278 Rocket 2.6 23:11:39 10° NNW 23:17:08 52° WSW 23:17:25 51° WSW
CZ-4B R/B 4.3 23:13:26 10° NNE 23:16:37 39° NE 23:16:37 39° NE
USA 234 3.9 23:17:39 39° SW 23:18:19 40° SW 23:24:25 10° WNW
Cosmos 2333 Rocket 3.5 23:14:27 10° SW 23:19:46 38° WNW 23:25:08 10° N
Timation 1 Rocket 4.5 23:19:37 10° NNW 23:25:31 62° WSW 23:25:37 62° WSW
Cosmos 1536 4.4 23:23:28 10° NNW 23:26:02 34° NW 23:26:02 34° NW
Cosmos 1709 Rocket 4.0 23:21:11 10° N 23:27:35 71° E 23:27:37 71° E
Cosmos 2219 Rocket 4.3 23:28:42 10° WSW 23:33:12 24° NW 23:37:44 10° N
SeaSat 1 3.7 23:38:34 33° W 23:38:34 33° W 23:42:22 10° NW
H-2A R/B 3.7 23:47:20 24° W 23:47:20 24° W 23:51:11 10° NW
